Regional Weather Roundup
Issued by NWS Goodland, KS

Home | Current Version | Previous Version | Text Only | Print | Product List | Glossary Off
Versions: 1 2 3 4 5 6 7 8 9 10 11 12 13 14 15 16 17 18 19 20 21 22 23 24 25 26 27 28 29 30 31 32 33 34 35 36 37 38 39 40 41 42 43 44 45 46 47 48 49 50

000
ASUS43 KGLD 061908
RWRGLD

GOODLAND FORECAST AREA HOURLY WEATHER ROUNDUP
NATIONAL WEATHER SERVICE GOODLAND KS
1200 PM MST SAT FEB 06 2016

...OFFICIAL OBSERVATIONS...

CITY           SKY/WX    TMP DP  RH WIND       PRES   REMARKS
GOODLAND KS    CLOUDY    40  20  44 SW16      30.18F
HILL CITY KS   SUNNY     40  23  50 SW14      30.22F
IMPERIAL NEB   CLOUDY    34  21  59 W9        30.14F
MCCOOK NEB     CLOUDY    32  18  56 SW14      30.17F
AKRON CO       CLOUDY    35  17  47 SW9       30.14F
BURLINGTON CO  CLOUDY    34  17  50 SW22      30.19F
LIMON CO       CLOUDY    33  16  49 N6        30.19F
$$

...UNOFFICIAL OBSERVATIONS...

CITY           SKY/WX    TMP DP  RH WIND       PRES   REMARKS
COLBY KS       SUNNY     39  28  65 SW12      30.19F
GOVE KS          N/A     40  32  73 MISG        N/A
LENORA KS        N/A     35  32  89 MISG        N/A
NORTON KS      SUNNY     34  18  51 SW9       30.18
SHARON SPRINGS   N/A     41  27  56 SW18        N/A
KIT CARSON CO    N/A     35  21  57 MISG        N/A
YUMA CO          N/A     40  24  52 W8          N/A
$$



USA.gov is the U.S. government's official web portal to all federal, state and local government web resources and services.